De Soto, IL

5:49 AM CDT on July 25, 2016 (GMT -0500)
Southern Illinois

Weather History for KMDH - December, 2013

Change the Weather History Date:

Tuesday, December 3, 2013

  Actual Average Record
Temperature  
Mean Temperature 49 °F -  
Max Temperature 61 °F 49 °F 77 °F (1982)
Min Temperature 37 °F 31 °F 1 °F (1929)
Degree Days  
Heating Degree Days 16    
Moisture  
Dew Point 45 °F    
Average Humidity 90    
Maximum Humidity 100    
Minimum Humidity 64    
Precipitation  
Precipitation 0.00 in - - ()
Sea Level Pressure  
Sea Level Pressure 29.72 in    
Wind  
Wind Speed 4 mph (SSE)    
Max Wind Speed 10 mph    
Max Gust Speed -    
Visibility 5 miles    
Events Fog    
Averages and records for this station are not official NWS values.
T = Trace of Precipitation, MM = Missing Value Source: NWS Daily Summary

Daily Weather History Graph

Daily Weather History Graph

Search for Another Location

Airport or City:

Trip Planner

Search our weather history database for the weather conditions in past years. The results will help you decide how hot, cold, wet, or windy it might be!

Date:

Astronomy

Dec. 03, 2013 Rise Set
Actual Time 6:55 AM CST 4:38 PM CST
Civil Twilight 6:26 AM CST 5:07 PM CST
Nautical Twilight 5:54 AM CST 5:39 PM CST
Astronomical Twilight 5:22 AM CST 6:11 PM CST
Moon 7:25 AM CST (12/3) 5:41 PM CST (12/3)
Length of Visible Light 10h 40m
Length of Day
9h 42m
New Moon, 1% of the Moon is Illuminated
Dec 3
New Moon
Dec 9
First Quarter
Dec 17
Full
Dec 25
Last Quarter
Jan 1
New

Hourly Weather History & Observations

Time (CST) Temp. Windchill Dew Point Humidity Pressure Visibility Wind Dir Wind Speed Gust Speed Precip Events Conditions
12:52 AM 44.1 °F 42.5 °F 43.0 °F 96% 29.73 in 4.0 mi SSE 3.5 mph - N/A   Clear
1:13 AM 42.8 °F - 41.0 °F 93% 29.72 in 1.8 mi Calm Calm - N/A   Clear
1:21 AM 41.0 °F 39.0 °F 39.2 °F 93% 29.72 in 0.5 mi SSE 3.5 mph - N/A Fog Fog
1:30 AM 37.4 °F 34.9 °F 37.4 °F 100% 29.72 in 0.2 mi SE 3.5 mph - N/A Fog Fog
1:44 AM 39.2 °F 37.0 °F 37.4 °F 93% 29.72 in 0.5 mi SE 3.5 mph - N/A Fog Fog
1:52 AM 39.0 °F - 37.9 °F 96% 29.73 in 0.5 mi Calm Calm - N/A Fog Fog
2:07 AM 37.4 °F 34.9 °F 37.4 °F 100% 29.72 in 0.5 mi SE 3.5 mph - N/A Fog Fog
2:20 AM 42.8 °F 41.1 °F 42.8 °F 100% 29.72 in 2.0 mi South 3.5 mph - N/A   Mostly Cloudy
2:29 AM 44.6 °F 42.2 °F 42.8 °F 93% 29.73 in 3.0 mi SSW 4.6 mph - N/A   Overcast
2:45 AM 46.4 °F 42.9 °F 46.4 °F 100% 29.73 in 1.8 mi SSW 6.9 mph - N/A   Overcast
2:52 AM 46.9 °F - 46.0 °F 97% 29.73 in 0.8 mi SSW 5.8 mph - N/A   Overcast
3:04 AM 48.2 °F - 46.4 °F 93% 29.73 in 0.2 mi South 4.6 mph - N/A Fog Fog
3:52 AM 48.0 °F - 46.9 °F 96% 29.73 in 0.2 mi ESE 3.5 mph - N/A Fog Fog
4:05 AM 48.2 °F - 48.2 °F 100% 29.72 in 0.5 mi SE 3.5 mph - N/A Fog Fog
4:48 AM 50.0 °F - 48.2 °F 94% 29.72 in 1.8 mi SSE 6.9 mph - N/A   Overcast
4:52 AM 50.0 °F - 48.9 °F 96% 29.72 in 2.5 mi SE 4.6 mph - N/A   Overcast
5:05 AM 50.0 °F - 48.2 °F 94% 29.72 in 0.8 mi SE 4.6 mph - N/A   Overcast
5:52 AM 50.0 °F - 48.9 °F 96% 29.72 in 0.5 mi SSE 6.9 mph - N/A Fog Fog
9:52 AM 51.1 °F - 50.0 °F 96% 29.77 in 4.0 mi SSE 6.9 mph - N/A   Overcast
10:05 AM 51.8 °F - 50.0 °F 94% 29.77 in 4.0 mi South 8.1 mph - N/A   Overcast
10:52 AM 54.0 °F - 50.0 °F 86% 29.75 in 6.0 mi SSE 9.2 mph - N/A   Overcast
11:52 AM 55.9 °F - 50.0 °F 80% 29.72 in 8.0 mi SSE 10.4 mph - N/A   Overcast
12:52 PM - - - N/A% 29.74 in 6.0 mi Variable 6.9 mph - N/A   Overcast
1:42 PM 59.0 °F - 48.9 °F 69% 29.70 in 10.0 mi South 10.4 mph - N/A   Overcast
1:52 PM 60.1 °F - 48.9 °F 67% 29.70 in 10.0 mi South 10.4 mph - N/A   Overcast
2:52 PM 61.0 °F - 48.9 °F 64% 29.69 in 10.0 mi South 9.2 mph - N/A   Mostly Cloudy
3:52 PM 59.0 °F - 48.0 °F 67% 29.69 in 10.0 mi South 6.9 mph - N/A   Mostly Cloudy
4:52 PM 54.0 °F - 46.0 °F 75% 29.70 in 10.0 mi SSE 5.8 mph - N/A   Mostly Cloudy
5:52 PM 52.0 °F - 44.1 °F 74% 29.70 in 10.0 mi SE 3.5 mph - N/A   Clear
6:52 PM 50.0 °F - 44.1 °F 80% 29.72 in 10.0 mi SE 3.5 mph - N/A   Clear
7:52 PM 43.0 °F 39.5 °F 41.0 °F 93% 29.72 in 9.0 mi SSE 5.8 mph - N/A   Clear
8:52 PM 45.0 °F - 42.1 °F 90% 29.72 in 8.0 mi Calm Calm - N/A   Clear
9:52 PM 41.0 °F 37.1 °F 39.0 °F 93% 29.72 in 6.0 mi South 5.8 mph - N/A   Clear
10:49 PM 46.4 °F 43.5 °F 44.6 °F 93% 29.71 in 8.0 mi SE 5.8 mph - N/A   Mostly Cloudy
10:52 PM 46.9 °F - 45.0 °F 93% 29.71 in 8.0 mi SE 4.6 mph - N/A   Mostly Cloudy
10:59 PM 46.9 °F - 45.0 °F 93% 29.71 in 7.0 mi SE 5.8 mph - N/A   Scattered Clouds
11:52 PM 48.9 °F - 46.0 °F 90% 29.71 in 7.0 mi SE 4.6 mph - N/A   Mostly Cloudy